Location: Unspecified
(0.0000°N, 0.0000°E)
Time: 11:24:01
(UTC+00:00)

Tiangong 2 - Pass Details

Date: 09 January 2018
Orbit: 384 x 390 km, 42.8° (Epoch: 17 January)

Event Time Altitude Azimuth Distance (km) Brightness Sun altitude
Rises 19:15:55 0° 289° (WNW) 2,249 5.7 -15.9°
Reaches altitude 10° 19:18:28 10° 268° (W) 1,397 5.0 -16.5°
Maximum altitude 19:20:37 17° 225° (SW) 1,058 4.2 -17.0°
Drops below altitude 10° 19:22:47 10° 181° (S) 1,399 4.2 -17.5°
Sets 19:25:20 0° 160° (SSE) 2,253 5.0 -18.0°
